Location: Bad Salzschlirf
(50.3750°N, 9.3000°E)
Time: 17:55:02
(UTC+02:00)

ISS - Pass Details

Date: 24 May 2020
Orbit: 417 x 420 km, 51.6° (Epoch: 26 May)

Event Time Altitude Azimuth Distance (km) Brightness Sun altitude
Rises 23:06:36 0° 283° (WNW) 2,367 0.8 -12.8°
Reaches altitude 10° 23:08:42 10° 284° (WNW) 1,502 -0.3 -13.0°
Maximum altitude 23:12:04 86° 10° (N) 426 -3.8 -13.3°
Enters shadow 23:14:42 16° 102° (ESE) 1,196 -1.8 -13.5°
